Location: Chuathbaluk
(61.5726°N, 159.2454°W)
Time: 02:58:20
(UTC+00:00)

Transit 4A - Pass Details

Date: 28 November 2020
Orbit: 864 x 980 km, 66.8° (Epoch: 26 January)

Event Time Altitude Azimuth Distance (km) Brightness Sun altitude
Rises 02:47:38 0° 309° (NW) 3,695 11.3 -7.9°
Reaches altitude 10° 02:50:16 10° 306° (NW) 2,742 10.7 -8.2°
Maximum altitude 02:56:30 55° 230° (SW) 1,156 8.9 -8.8°
Drops below altitude 10° 03:02:36 10° 155° (SSE) 2,683 10.4 -9.5°
Sets 03:05:09 0° 151° (SSE) 3,610 11.0 -9.7°
